Find Meteor-2

NORAD ID: 11605 Int'l Des: 1979-095 Owner: GUKOSR/GMS Country: SU operational
LEOCIRCULARPOLAR

現在のビュー

3D地球を読み込み中...

About Meteor-2

Meteor-2 (NORAD 11605) is a satellite launched Oct 31, 1979 by GUKOSR/GMS of SU. It operates in LEO, CIRCULAR, POLAR orbit with a mass of 1500.00 kg.

次回通過

Passes for default location (London). Set your location on the main map for personalized predictions.

高度履歴

Loading altitude history...

軌道要素

1 11605U 79095A 26195.13891591 .00000189 00000-0 10492-3 0 9990
2 11605 81.2080 205.1452 0013650 190.8886 169.1990 14.07476262397090
Epoch: Jul 14, 2026 • Age: 6 hours

現在のステータス

高度 861.3 km
遠地点 / 近地点 N/A
速度 7.43 km/s
衛星直下点 14.84°N, 48.2°W
打ち上げ日 Oct 31, 1979
運用期間 46.7 years
タイプ other

技術仕様

分類 Payload
質量 1500.00 kg
乾燥質量 1500.00 kg
総質量 1500.00 kg
長さ 4.50 m
直径 1.40 m
スパン 4.50 m
形状 Cyl + 2 Pan
製造者 VNIEM
バスタイプ Meteor-2
フェーズステータス In Orbit
所有者/国 GUKOSR/GMS/SU

Most Searched